Regional Weather Roundup
Issued by NWS

Home | Current Version | Previous Version | Text Only | Print | Product List | Glossary On
Versions: 1 2 3 4 5 6 7 8 9 10 11 12 13 14 15 16 17 18 19 20 21 22 23 24 25 26 27 28 29 30 31 32 33 34 35 36 37 38 39 40 41 42 43 44 45 46 47 48 49 50
000
ASUS43 KLMK 201410
RWRKY
KENTUCKY REGIONAL WEATHER ROUNDUP
NATIONAL WEATHER SERVICE LOUISVILLE KY
1000 AM EDT FRI OCT 20 2017

NOTE "FAIR" INDICATES FEW OR NO CLOUDS BELOW 12,000 FEET
WITH NO SIGNIFICANT WEATHER AND/OR OBSTRUCTIONS TO VISIBILITY.

KYZ001>023-026-027-061>063-070>075-201500-
WESTERN AND SOUTH CENTRAL KENTUCKY

CITY           SKY/WX    TMP DP  RH WIND       PRES   REMARKS
PADUCAH        SUNNY     60  52  74 CALM      30.26R
HENDERSON      SUNNY     58  53  84 E3        30.28S
OWENSBORO      SUNNY     58  51  78 SE3       30.30S
HOPKINSVILLE   SUNNY     55  49  81 SE3       30.30R
BOWLING GREEN  SUNNY     54  52  93 CALM      30.33R
GLASGOW        SUNNY     55  51  85 CALM      30.33S
$$

KYZ024-025-028>034-038-045-046-053-201500-
NORTH CENTRAL KENTUCKY

CITY           SKY/WX    TMP DP  RH WIND       PRES   REMARKS
LOUISVILLE/SDF MOSUNNY   57  52  83 SE3       30.32R
LOUISVILLE/LOU SUNNY     58  54  86 SE3       30.33R
FORT KNOX      SUNNY     55  55 100 CALM      30.30R
$$

KYZ035>037-039>044-047>052-055>060-089>105-201500-
NORTHEAST KENTUCKY

CITY           SKY/WX    TMP DP  RH WIND       PRES   REMARKS
LEXINGTON      SUNNY     58  51  78 CALM      30.34R
COVINGTON      MOSUNNY   59  55  87 CALM      30.32R
FRANKFORT      SUNNY     57  50  77 CALM      30.32R
$$

KYZ054-064>069-076>088-106>120-201500-
SOUTHEAST KENTUCKY

CITY           SKY/WX    TMP DP  RH WIND       PRES   REMARKS
JACKSON        SUNNY     54  47  77 CALM      30.35R
LONDON         SUNNY     52  48  86 CALM      30.35R
SOMERSET       SUNNY     50  50 100 CALM      30.36R
MIDDLESBORO    FOG       44  44 100 CALM      30.39R VSB 1/4
MONTICELLO     SUNNY     54  50  86 VRB3      30.36R
$$





USA.gov is the U.S. government's official web portal to all federal, state and local government web resources and services.